Terminal Aerodrome Forecast
Issued by NWS Tampa Bay Area, FL

Home | Current Version | Previous Version | Text Only | Print | Product List | Glossary On
Versions: 1 2 3 4 5 6 7 8 9 10 11 12 13 14 15 16 17 18 19 20 21 22 23 24 25 26
000
FTUS42 KTBW 031121
TAFTPA
TAF
KTPA 031121Z 0312/0412 07005KT P6SM FEW070
     FM031400 09008KT P6SM FEW030 FEW250
     FM031900 06011G20KT P6SM FEW050 FEW250
     FM040200 09006KT P6SM FEW250=

USA.gov is the U.S. government's official web portal to all federal, state and local government web resources and services.